Newburgh, NY

6:47 AM EST on January 20, 2018 (GMT -0500)
Stewart International

Weather History for KSWF - December, 2013

Change the Weather History Date:

Tuesday, December 10, 2013

  Actual Average Record
Temperature  
Mean Temperature 28 °F -  
Max Temperature 33 °F 40 °F 59 °F (1991)
Min Temperature 23 °F 24 °F 3 °F (1982)
Degree Days  
Heating Degree Days 37    
Moisture  
Dew Point 27 °F    
Average Humidity 90    
Maximum Humidity 100    
Minimum Humidity 80    
Precipitation  
Precipitation 0.00 in - - ()
Sea Level Pressure  
Sea Level Pressure 29.95 in    
Wind  
Wind Speed 11 mph (West)    
Max Wind Speed 16 mph    
Max Gust Speed -    
Visibility 8 miles    
Events Snow    
Averages and records for this station are not official NWS values.
T = Trace of Precipitation, MM = Missing Value Source: NWS Daily Summary

Daily Weather History Graph

Daily Weather History Graph

Search for Another Location

Airport or City:

Trip Planner

Search our weather history database for the weather conditions in past years. The results will help you decide how hot, cold, wet, or windy it might be!

Date:

Astronomy

Dec. 10, 2013 Rise Set
Actual Time 7:12 AM EST 4:26 PM EST
Civil Twilight 6:40 AM EST 4:57 PM EST
Nautical Twilight 6:06 AM EST 5:32 PM EST
Astronomical Twilight 5:32 AM EST 6:06 PM EST
Moon 12:30 PM EST (12/10) 12:23 AM EST (12/10)
Length of Visible Light 10h 16m
Length of Day
9h 14m
First Quarter, 61% of the Moon is Illuminated
Dec 10
First Quarter
Dec 17
Full
Dec 25
Last Quarter
Jan 1
New
Jan 7
First Quarter

Hourly Weather History & Observations

Time (EST) Temp. Windchill Dew Point Humidity Pressure Visibility Wind Dir Wind Speed Gust Speed Precip Events Conditions
12:45 AM 32.0 °F 23.0 °F 30.2 °F 93% 29.97 in 10.0 mi West 11.5 mph - N/A   Clear
1:45 AM 30.2 °F 20.8 °F 30.2 °F 100% 29.95 in 10.0 mi WNW 11.5 mph - N/A   Clear
2:45 AM 33.8 °F 25.3 °F 30.2 °F 87% 29.95 in 10.0 mi West 11.5 mph - N/A   Clear
3:45 AM 32.0 °F 25.6 °F 30.2 °F 93% 29.97 in 10.0 mi West 6.9 mph - N/A   Clear
4:45 AM 33.8 °F 25.3 °F 30.2 °F 87% 29.98 in 10.0 mi WNW 11.5 mph - N/A   Scattered Clouds
5:45 AM 32.0 °F 25.6 °F 30.2 °F 93% 29.96 in 10.0 mi WNW 6.9 mph - N/A   Mostly Cloudy
6:45 AM 33.8 °F 25.3 °F 30.2 °F 87% 29.97 in - West 11.5 mph - N/A   Mostly Cloudy
7:45 AM 32.0 °F 23.0 °F 30.2 °F 93% 29.96 in - West 11.5 mph - N/A   Overcast
8:25 AM 32.0 °F 23.0 °F 30.2 °F 93% 29.94 in 2.5 mi West 11.5 mph - N/A Snow Light Snow
8:45 AM 32.0 °F 23.0 °F 30.2 °F 93% 29.93 in 6.0 mi West 11.5 mph - N/A Snow Light Snow
9:45 AM 32.0 °F 23.0 °F 30.2 °F 93% 29.93 in 2.5 mi West 11.5 mph - N/A Snow Light Snow
10:45 AM 32.0 °F 24.2 °F 30.2 °F 93% 29.91 in 6.0 mi WSW 9.2 mph - N/A   Mostly Cloudy
11:45 AM 32.0 °F 25.6 °F 30.2 °F 93% 29.88 in 4.0 mi WSW 6.9 mph - N/A Snow Light Snow
12:45 PM 30.2 °F 18.9 °F 28.4 °F 93% 29.87 in 2.0 mi WNW 16.1 mph - N/A Snow Snow
1:45 PM 30.2 °F 19.8 °F 28.4 °F 93% 29.87 in 2.0 mi West 13.8 mph - N/A Snow Light Snow
2:45 PM 30.2 °F 20.8 °F 26.6 °F 86% 29.87 in 10.0 mi WNW 11.5 mph - N/A   Mostly Cloudy
3:45 PM 30.2 °F 19.8 °F 26.6 °F 86% 29.89 in 10.0 mi WNW 13.8 mph - N/A   Scattered Clouds
5:45 PM 28.4 °F 21.2 °F 23.0 °F 80% 29.94 in 10.0 mi West 6.9 mph - N/A   Partly Cloudy
6:45 PM 26.6 °F 19.1 °F 23.0 °F 86% 29.96 in 10.0 mi WSW 6.9 mph - N/A   Partly Cloudy
8:45 PM 23.0 °F 17.0 °F 21.2 °F 93% 30.01 in 10.0 mi WSW 4.6 mph - N/A   Clear
9:45 PM 23.0 °F 17.0 °F 21.2 °F 93% 30.02 in 10.0 mi WSW 4.6 mph - N/A   Overcast
10:45 PM 23.0 °F 10.6 °F 17.6 °F 80% 30.04 in 10.0 mi West 13.8 mph - N/A   Clear
11:45 PM 23.0 °F 11.7 °F 17.6 °F 80% 30.07 in 10.0 mi West 11.5 mph - N/A   Clear